AT&T T-16

Last updated on Sat Jul 05 2025 00:02:47 GMT+0000 (Coordinated Universal Time)

1 44333U 19034A 25184.97435655 -.00000103 00000+0 00000+0 0 9991 2 44333 0.0291 80.7981 0000525 273.5457 177.7911 1.00275154 22146
UTC large
Height (km)
Speed (km/s)
/
Latitude / Longitude
Inclination (degrees)
Orbital Period (minutes)
Azimuth
Elevation
Range (km)
Doppler Factor

Next 0 passes for location: London (51.5072 / 0.1276)

Sorry there are no passes over London.